• In Russia
  • List of Countries
  • For 7 days
  • Water Temperature
  • Satellite Maps
  • Weather Map
  • Weather Widgets
  • user-avatar
    Login

    Hourly Weather Dankon

    Today, 20 May, Sunday

    Time Temperature Precipitation Wind Pressure Humidity
    00:00 +24°C° 0 mm 1 mps 700 mmHg 79%
    01:00 +23°C° 0 mm 1 mps 700 mmHg 84%
    02:00 +23°C° 0.1 mm 1 mps 700 mmHg 86%
    03:00 +21°C° 0.1 mm 0 mps 700 mmHg 88%
    04:00 +21°C° 0.1 mm 0 mps 700 mmHg 89%
    05:00 +22°C° 0 mm 0 mps 700 mmHg 86%
    06:00 +23°C° 0 mm 0 mps 701 mmHg 83%
    07:00 +24°C° 0 mm 0 mps 701 mmHg 83%
    08:00 +26°C° 0.5 mm 0 mps 701 mmHg 74%
    09:00 +28°C° 0.5 mm 0 mps 701 mmHg 65%
    10:00 +33°C° 0.5 mm 1 mps 701 mmHg 56%
    11:00 +34°C° 0.2 mm 1 mps 701 mmHg 50%
    12:00 +35°C° 0.2 mm 1 mps 701 mmHg 44%
    13:00 +36°C° 0 mm 1 mps 701 mmHg 38%
    14:00 +35°C° 0 mm 1 mps 701 mmHg 39%
    15:00 +35°C° 0 mm 1 mps 700 mmHg 40%
    16:00 +35°C° 0 mm 1 mps 700 mmHg 41%
    17:00 +33°C° 0 mm 1 mps 699 mmHg 49%
    18:00 +31°C° 0 mm 1 mps 699 mmHg 56%
    19:00 +28°C° 0 mm 1 mps 699 mmHg 64%
    20:00 +27°C° 0.3 mm 1 mps 699 mmHg 69%
    21:00 +26°C° 0.3 mm 1 mps 700 mmHg 74%
    22:00 +25°C° 0.3 mm 1 mps 700 mmHg 79%
    23:00 +25°C° 0.1 mm 1 mps 700 mmHg 81%

    Tomorrow, 21 May, Monday

    Time Temperature Precipitation Wind Pressure Humidity
    00:00 +23°C° 0.1 mm 0 mps 700 mmHg 83%
    01:00 +22°C° 0.1 mm 0 mps 700 mmHg 84%
    02:00 +22°C° 0.1 mm 0 mps 700 mmHg 85%
    03:00 +22°C° 0.1 mm 0 mps 700 mmHg 87%
    04:00 +21°C° 0.1 mm 0 mps 699 mmHg 88%
    05:00 +22°C° 0 mm 0 mps 700 mmHg 84%
    06:00 +23°C° 0 mm 0 mps 700 mmHg 81%
    07:00 +24°C° 0 mm 0 mps 701 mmHg 77%
    08:00 +27°C° 0.2 mm 0 mps 701 mmHg 66%
    09:00 +30°C° 0.2 mm 0 mps 702 mmHg 56%
    10:00 +35°C° 0.2 mm 1 mps 702 mmHg 45%
    11:00 +35°C° 0 mm 1 mps 702 mmHg 42%
    12:00 +36°C° 0 mm 1 mps 702 mmHg 39%
    13:00 +37°C° 0 mm 1 mps 701 mmHg 36%
    14:00 +36°C° 0 mm 1 mps 701 mmHg 38%
    15:00 +35°C° 0 mm 1 mps 700 mmHg 40%
    16:00 +35°C° 0 mm 1 mps 699 mmHg 43%
    17:00 +33°C° 0 mm 1 mps 699 mmHg 48%
    18:00 +31°C° 0 mm 1 mps 699 mmHg 54%
    19:00 +27°C° 0 mm 0 mps 699 mmHg 60%
    20:00 +26°C° 0.7 mm 0 mps 700 mmHg 68%
    21:00 +27°C° 0.7 mm 1 mps 700 mmHg 76%
    22:00 +25°C° 0.7 mm 1 mps 700 mmHg 84%
    23:00 +25°C° 0.3 mm 1 mps 700 mmHg 85%

    Day after tomorrow, 22 May, Tuesday

    Time Temperature Precipitation Wind Pressure Humidity
    00:00 +23°C° 0.3 mm 0 mps 700 mmHg 86%
    01:00 +22°C° 0.3 mm 0 mps 700 mmHg 87%
    02:00 +22°C° 0.3 mm 0 mps 700 mmHg 88%
    03:00 +22°C° 0.3 mm 0 mps 700 mmHg 88%
    04:00 +22°C° 0.3 mm 0 mps 700 mmHg 89%
    05:00 +23°C° 0.4 mm 0 mps 700 mmHg 86%
    06:00 +23°C° 0.4 mm 0 mps 701 mmHg 84%
    07:00 +24°C° 0.4 mm 0 mps 701 mmHg 81%
    08:00 +27°C° 1 mm 0 mps 702 mmHg 74%
    09:00 +29°C° 1 mm 0 mps 702 mmHg 66%
    10:00 +32°C° 1 mm 0 mps 703 mmHg 59%
    11:00 +34°C° 0.3 mm 1 mps 703 mmHg 55%
    12:00 +34°C° 0.3 mm 1 mps 702 mmHg 51%
    13:00 +35°C° 0.3 mm 1 mps 702 mmHg 47%
    14:00 +33°C° 0.1 mm 1 mps 701 mmHg 53%
    15:00 +32°C° 0.1 mm 1 mps 701 mmHg 58%
    16:00 +31°C° 0.1 mm 1 mps 700 mmHg 64%
    17:00 +30°C° 0 mm 1 mps 700 mmHg 68%
    18:00 +28°C° 0 mm 1 mps 700 mmHg 73%
    19:00 +25°C° 0 mm 0 mps 700 mmHg 78%
    20:00 +24°C° 0 mm 0 mps 701 mmHg 80%
    21:00 +24°C° 0 mm 0 mps 701 mmHg 82%
    22:00 +23°C° 0 mm 0 mps 702 mmHg 84%
    23:00 +23°C° 0.1 mm 0 mps 702 mmHg 83%

    23 May, Wednesday

    Time Temperature Precipitation Wind Pressure Humidity
    00:00 +22°C° 0.1 mm 0 mps 701 mmHg 83%
    01:00 +22°C° 0.1 mm 0 mps 701 mmHg 83%
    02:00 +22°C° 0.1 mm 0 mps 701 mmHg 83%
    03:00 +22°C° 0.1 mm 0 mps 701 mmHg 83%
    04:00 +21°C° 0.1 mm 0 mps 701 mmHg 83%
    05:00 +22°C° 0.1 mm 0 mps 701 mmHg 81%
    06:00 +23°C° 0.1 mm 0 mps 702 mmHg 79%
    07:00 +23°C° 0.1 mm 0 mps 702 mmHg 76%
    08:00 +26°C° 0.3 mm 0 mps 703 mmHg 67%
    09:00 +29°C° 0.3 mm 0 mps 703 mmHg 57%
    10:00 +32°C° 0.3 mm 0 mps 704 mmHg 47%
    11:00 +33°C° 0.1 mm 0 mps 704 mmHg 44%
    12:00 +36°C° 0.1 mm 1 mps 703 mmHg 40%
    13:00 +37°C° 0.1 mm 1 mps 703 mmHg 37%
    14:00 +35°C° 0.2 mm 1 mps 702 mmHg 44%
    15:00 +33°C° 0.2 mm 1 mps 701 mmHg 52%
    16:00 +31°C° 0.2 mm 1 mps 700 mmHg 60%
    17:00 +29°C° 0.6 mm 1 mps 700 mmHg 67%
    18:00 +28°C° 0.6 mm 1 mps 700 mmHg 74%
    19:00 +26°C° 0.6 mm 1 mps 700 mmHg 81%
    20:00 +24°C° 0 mm 0 mps 700 mmHg 83%
    21:00 +23°C° 0 mm 0 mps 701 mmHg 85%
    22:00 +22°C° 0 mm 0 mps 701 mmHg 88%
    23:00 +22°C° 0.2 mm 0 mps 701 mmHg 89%

    24 May, Thursday

    Time Temperature Precipitation Wind Pressure Humidity
    00:00 +22°C° 0.2 mm 0 mps 701 mmHg 91%
    01:00 +21°C° 0.2 mm 0 mps 700 mmHg 92%
    02:00 +21°C° 0.2 mm 0 mps 700 mmHg 93%
    03:00 +21°C° 0.2 mm 0 mps 700 mmHg 94%
    04:00 +21°C° 0.2 mm 0 mps 700 mmHg 94%
    05:00 +21°C° 0 mm 0 mps 700 mmHg 92%
    06:00 +22°C° 0 mm 0 mps 701 mmHg 89%
    07:00 +23°C° 0 mm 0 mps 701 mmHg 86%
    08:00 +26°C° 0.3 mm 0 mps 702 mmHg 76%
    09:00 +30°C° 0.3 mm 1 mps 702 mmHg 66%
    10:00 +32°C° 0.3 mm 1 mps 703 mmHg 56%
    11:00 +33°C° 0.5 mm 1 mps 702 mmHg 55%
    12:00 +34°C° 0.5 mm 1 mps 702 mmHg 54%
    13:00 +35°C° 0.5 mm 2 mps 701 mmHg 52%
    14:00 +35°C° 0.3 mm 2 mps 701 mmHg 52%
    15:00 +33°C° 0.3 mm 1 mps 700 mmHg 51%
    16:00 +33°C° 0.3 mm 1 mps 700 mmHg 51%
    17:00 +31°C° 0.2 mm 1 mps 700 mmHg 60%
    18:00 +29°C° 0.2 mm 1 mps 700 mmHg 69%
    19:00 +27°C° 0.2 mm 1 mps 700 mmHg 78%
    20:00 +26°C° 0.2 mm 1 mps 700 mmHg 81%
    21:00 +23°C° 0.2 mm 0 mps 701 mmHg 85%
    22:00 +23°C° 0.2 mm 0 mps 701 mmHg 89%
    23:00 +22°C° 0.1 mm 0 mps 701 mmHg 89%

    25 May, Friday

    Time Temperature Precipitation Wind Pressure Humidity
    00:00 +22°C° 0.1 mm 0 mps 700 mmHg 90%
    01:00 +22°C° 0.1 mm 0 mps 700 mmHg 91%
    02:00 +22°C° 0 mm 0 mps 700 mmHg 91%
    03:00 +22°C° 0 mm 0 mps 700 mmHg 91%
    04:00 +22°C° 0 mm 0 mps 700 mmHg 91%
    05:00 +22°C° 0.1 mm 0 mps 700 mmHg 89%
    06:00 +23°C° 0.1 mm 0 mps 701 mmHg 86%
    07:00 +24°C° 0.1 mm 0 mps 701 mmHg 84%
    08:00 +26°C° 0.4 mm 0 mps 702 mmHg 76%
    09:00 +29°C° 0.4 mm 1 mps 702 mmHg 68%
    10:00 +31°C° 0.4 mm 1 mps 702 mmHg 61%
    11:00 +32°C° 1.1 mm 1 mps 702 mmHg 63%
    12:00 +32°C° 1.1 mm 1 mps 701 mmHg 65%
    13:00 +32°C° 1.1 mm 1 mps 701 mmHg 67%
    14:00 +30°C° 1.7 mm 1 mps 700 mmHg 74%
    15:00 +29°C° 1.7 mm 1 mps 700 mmHg 80%
    16:00 +25°C° 1.7 mm 0 mps 699 mmHg 86%
    17:00 +25°C° 0.5 mm 0 mps 699 mmHg 88%
    18:00 +26°C° 0.5 mm 1 mps 700 mmHg 90%
    19:00 +25°C° 0.5 mm 1 mps 700 mmHg 92%
    20:00 +25°C° 0 mm 1 mps 700 mmHg 93%
    21:00 +24°C° 0 mm 1 mps 700 mmHg 93%
    22:00 +24°C° 0 mm 1 mps 700 mmHg 94%
    23:00 +24°C° 0 mm 1 mps 700 mmHg 94%
    Show more